Back to catalog

CZ-4 DEB

AliveSSO
NORAD 26118·DEBRIS·🇨🇳 China

Launched Oct 14, 1999 from Taiyuan Satellite Launch Center

Loading…

Next Passes (next 24 hours)

TLE

FreshSource: Space-Track

Epoch: Sep 14, 2026, 10:42 UTC

1 26118U 99057E   26257.44621290  .00002139  00000-0  81248-3 0  9999
2 26118  99.0999 317.7423 0277272  90.8918 272.4030 14.13023330354420

Track CZ-4 DEB in real time with AllMySat

Download on the App Store